| time (UTC) | temp C | wind direction | speed KPH | gust KPH | rain 1hr cm | rain 24hr cm | rain mn cm | humidity % | barometer mb |
| 20260508052833 | 8 | 30 | 12.9 | 0.0 | 0.00 | 0.00 | 0.00 | 71 | 1019.0 |
| 20260508051649 | 8 | 30 | 12.9 | 0.0 | 0.00 | 0.00 | 0.00 | 71 | 1019.0 |
| 20260508050326 | 8 | 30 | 12.9 | 0.0 | 0.00 | 0.00 | 0.00 | 71 | 1019.0 |
| 20260508045147 | 8 | 30 | 12.9 | 0.0 | 0.00 | 0.00 | 0.00 | 71 | 1019.0 |
| 20260508043831 | 8 | 30 | 12.9 | 0.0 | 0.00 | 0.00 | 0.00 | 71 | 1019.0 |
| 20260508042512 | 7 | 20 | 12.9 | 0.0 | 0.00 | 0.00 | 0.00 | 81 | 1019.0 |
| 20260508041330 | 7 | 20 | 12.9 | 0.0 | 0.00 | 0.00 | 0.00 | 81 | 1019.0 |
| 20260508040149 | 7 | 10 | 9.7 | 0.0 | 0.00 | 0.00 | 0.00 | 81 | 1019.0 |
| 20260508035013 | 7 | 10 | 9.7 | 0.0 | 0.00 | 0.00 | 0.00 | 81 | 1019.0 |
| 20260508033834 | 7 | 10 | 9.7 | 0.0 | 0.00 | 0.00 | 0.00 | 81 | 1019.0 |
| 20260508032653 | 7 | 350 | 6.4 | 0.0 | 0.00 | 0.00 | 0.00 | 87 | 1019.0 |
| 20260508031504 | 7 | 350 | 6.4 | 0.0 | 0.00 | 0.00 | 0.00 | 87 | 1019.0 |
| 20260508030324 | 7 | 350 | 6.4 | 0.0 | 0.00 | 0.00 | 0.00 | 87 | 1019.0 |
| 20260508025126 | 7 | 350 | 6.4 | 0.0 | 0.00 | 0.00 | 0.00 | 87 | 1019.0 |
| 20260508023946 | 7 | 350 | 6.4 | 0.0 | 0.00 | 0.00 | 0.00 | 87 | 1019.0 |
| 20260508022805 | 7 | 340 | 9.7 | 0.0 | 0.00 | 0.00 | 0.00 | 81 | 1019.0 |
| 20260508021628 | 7 | 340 | 9.7 | 0.0 | 0.00 | 0.00 | 0.00 | 81 | 1019.0 |
| 20260508020450 | 7 | 340 | 9.7 | 0.0 | 0.00 | 0.00 | 0.00 | 81 | 1019.0 |
| 20260508015308 | 7 | 330 | 9.7 | 0.0 | 0.00 | 0.00 | 0.00 | 81 | 1019.0 |
| 20260508014129 | 7 | 330 | 9.7 | 0.0 | 0.00 | 0.00 | 0.00 | 81 | 1019.0 |
| 20260508012944 | 7 | 350 | 9.7 | 0.0 | 0.00 | 0.00 | 0.00 | 81 | 1019.0 |
| 20260508011812 | 7 | 350 | 9.7 | 0.0 | 0.00 | 0.00 | 0.00 | 81 | 1019.0 |
| 20260508010614 | 7 | 350 | 9.7 | 0.0 | 0.00 | 0.00 | 0.00 | 81 | 1019.0 |
| 20260508005436 | 7 | 340 | 6.4 | 0.0 | 0.00 | 0.00 | 0.00 | 81 | 1019.0 |
| 20260508004302 | 7 | 340 | 6.4 | 0.0 | 0.00 | 0.00 | 0.00 | 81 | 1019.0 |
| 20260508003120 | 7 | 330 | 6.4 | 0.0 | 0.00 | 0.00 | 0.00 | 81 | 1019.0 |
| 20260508001941 | 7 | 330 | 6.4 | 0.0 | 0.00 | 0.00 | 0.00 | 81 | 1019.0 |
| 20260508000810 | 7 | 330 | 6.4 | 0.0 | 0.00 | 0.00 | 0.00 | 81 | 1019.0 |
| 20260507235631 | 7 | 330 | 6.4 | 0.0 | 0.00 | 0.00 | 0.00 | 81 | 1018.0 |
| 20260507234315 | 7 | 330 | 6.4 | 0.0 | 0.00 | 0.00 | 0.00 | 81 | 1018.0 |
| 20260507233144 | 7 | 350 | 6.4 | 0.0 | 0.00 | 0.00 | 0.00 | 81 | 1018.0 |
| 20260507231955 | 7 | 350 | 6.4 | 0.0 | 0.00 | 0.00 | 0.00 | 81 | 1018.0 |
| 20260507230811 | 7 | 350 | 6.4 | 0.0 | 0.00 | 0.00 | 0.00 | 81 | 1018.0 |
| 20260507225634 | 7 | 340 | 9.7 | 0.0 | 0.00 | 0.00 | 0.00 | 81 | 1018.0 |
| 20260507224504 | 7 | 340 | 9.7 | 0.0 | 0.00 | 0.00 | 0.00 | 81 | 1018.0 |
| 20260507223322 | 7 | 330 | 6.4 | 0.0 | 0.00 | 0.00 | 0.00 | 87 | 1018.0 |
| 20260507222143 | 7 | 330 | 6.4 | 0.0 | 0.00 | 0.00 | 0.00 | 87 | 1018.0 |
| 20260507221011 | 7 | 330 | 6.4 | 0.0 | 0.00 | 0.00 | 0.00 | 87 | 1018.0 |
| 20260507215824 | 7 | 340 | 9.7 | 0.0 | 0.00 | 0.00 | 0.00 | 87 | 1018.0 |
| 20260507214621 | 7 | 340 | 9.7 | 0.0 | 0.00 | 0.00 | 0.00 | 87 | 1018.0 |
| 20260507213434 | 7 | 340 | 12.9 | 0.0 | 0.00 | 0.00 | 0.00 | 87 | 1018.0 |
| 20260507212252 | 7 | 340 | 12.9 | 0.0 | 0.00 | 0.00 | 0.00 | 87 | 1018.0 |
| 20260507211113 | 7 | 340 | 12.9 | 0.0 | 0.00 | 0.00 | 0.00 | 87 | 1018.0 |
| 20260507205940 | 7 | 350 | 9.7 | 0.0 | 0.00 | 0.00 | 0.00 | 81 | 1018.0 |
| 20260507204751 | 7 | 350 | 9.7 | 0.0 | 0.00 | 0.00 | 0.00 | 81 | 1018.0 |
| 20260507203612 | 7 | 340 | 9.7 | 0.0 | 0.00 | 0.00 | 0.00 | 81 | 1018.0 |
| 20260507202254 | 7 | 340 | 9.7 | 0.0 | 0.00 | 0.00 | 0.00 | 81 | 1018.0 |
| 20260507201118 | 7 | 340 | 9.7 | 0.0 | 0.00 | 0.00 | 0.00 | 81 | 1018.0 |
| 20260507195922 | 7 | 350 | 6.4 | 0.0 | 0.00 | 0.00 | 0.00 | 81 | 1017.0 |
| 20260507194611 | 7 | 350 | 6.4 | 0.0 | 0.00 | 0.00 | 0.00 | 81 | 1017.0 |
| 20260507193250 | 7 | 340 | 12.9 | 0.0 | 0.00 | 0.00 | 0.00 | 81 | 1017.0 |
| 20260507192104 | 7 | 340 | 12.9 | 0.0 | 0.00 | 0.00 | 0.00 | 81 | 1017.0 |
| 20260507190913 | 7 | 340 | 12.9 | 0.0 | 0.00 | 0.00 | 0.00 | 81 | 1017.0 |
| 20260507185738 | 7 | 340 | 9.7 | 0.0 | 0.00 | 0.00 | 0.00 | 81 | 1017.0 |
| 20260507184552 | 7 | 340 | 9.7 | 0.0 | 0.00 | 0.00 | 0.00 | 81 | 1017.0 |
| 20260507183408 | 7 | 330 | 9.7 | 0.0 | 0.00 | 0.00 | 0.00 | 76 | 1016.0 |
| 20260507182215 | 7 | 330 | 9.7 | 0.0 | 0.00 | 0.00 | 0.00 | 76 | 1016.0 |
| 20260507180849 | 7 | 330 | 9.7 | 0.0 | 0.00 | 0.00 | 0.00 | 76 | 1016.0 |
| 20260507175709 | 7 | 340 | 12.9 | 0.0 | 0.00 | 0.00 | 0.00 | 76 | 1016.0 |
| 20260507174524 | 7 | 340 | 12.9 | 0.0 | 0.00 | 0.00 | 0.00 | 76 | 1016.0 |
| 20260507173345 | 7 | 340 | 9.7 | 0.0 | 0.00 | 0.00 | 0.00 | 76 | 1016.0 |
| 20260507172209 | 7 | 340 | 9.7 | 0.0 | 0.00 | 0.00 | 0.00 | 76 | 1016.0 |
| 20260507171016 | 7 | 340 | 9.7 | 0.0 | 0.00 | 0.00 | 0.00 | 76 | 1016.0 |
| 20260507165506 | 7 | 350 | 12.9 | 0.0 | 0.00 | 0.00 | 0.00 | 76 | 1016.0 |
| 20260507164323 | 7 | 350 | 12.9 | 0.0 | 0.00 | 0.00 | 0.00 | 76 | 1016.0 |
| 20260507162955 | 7 | 360 | 16.1 | 0.0 | 0.00 | 0.00 | 0.00 | 76 | 1016.0 |
| 20260507161758 | 7 | 360 | 16.1 | 0.0 | 0.00 | 0.00 | 0.00 | 76 | 1016.0 |
| 20260507160624 | 7 | 360 | 16.1 | 0.0 | 0.00 | 0.00 | 0.00 | 76 | 1016.0 |
| 20260507155448 | 7 | 10 | 16.1 | 0.0 | 0.00 | 0.00 | 0.00 | 76 | 1016.0 |
| 20260507154309 | 7 | 10 | 16.1 | 0.0 | 0.00 | 0.00 | 0.00 | 76 | 1016.0 |
| 20260507153122 | 8 | 20 | 16.1 | 0.0 | 0.00 | 0.00 | 0.00 | 71 | 1016.0 |
| 20260507151943 | 8 | 20 | 16.1 | 0.0 | 0.00 | 0.00 | 0.00 | 71 | 1016.0 |
| 20260507150802 | 8 | 20 | 16.1 | 0.0 | 0.00 | 0.00 | 0.00 | 71 | 1016.0 |
| 20260507145619 | 8 | 20 | 19.3 | 0.0 | 0.00 | 0.00 | 0.00 | 76 | 1016.0 |
| 20260507144449 | 8 | 20 | 19.3 | 0.0 | 0.00 | 0.00 | 0.00 | 76 | 1016.0 |
| 20260507143319 | 8 | 350 | 19.3 | 0.0 | 0.00 | 0.00 | 0.00 | 76 | 1016.0 |
| 20260507142138 | 8 | 350 | 19.3 | 0.0 | 0.00 | 0.00 | 0.00 | 76 | 1016.0 |
| 20260507141002 | 8 | 350 | 19.3 | 0.0 | 0.00 | 0.00 | 0.00 | 76 | 1016.0 |
| 20260507135825 | 8 | 10 | 16.1 | 0.0 | 0.00 | 0.00 | 0.00 | 76 | 1015.0 |
| 20260507134645 | 8 | 10 | 16.1 | 0.0 | 0.00 | 0.00 | 0.00 | 76 | 1015.0 |
| 20260507133507 | 8 | 350 | 19.3 | 0.0 | 0.00 | 0.00 | 0.00 | 76 | 1015.0 |
| 20260507132337 | 8 | 350 | 19.3 | 0.0 | 0.00 | 0.00 | 0.00 | 76 | 1015.0 |
| 20260507131158 | 8 | 350 | 19.3 | 0.0 | 0.00 | 0.00 | 0.00 | 76 | 1015.0 |
| 20260507130008 | 8 | 350 | 19.3 | 0.0 | 0.00 | 0.00 | 0.00 | 76 | 1015.0 |
| 20260507124826 | 8 | 350 | 19.3 | 0.0 | 0.00 | 0.00 | 0.00 | 76 | 1015.0 |
| 20260507123655 | 8 | 350 | 19.3 | 0.0 | 0.00 | 0.00 | 0.00 | 76 | 1015.0 |
| 20260507122510 | 8 | 360 | 19.3 | 0.0 | 0.00 | 0.00 | 0.00 | 76 | 1015.0 |
| 20260507121018 | 8 | 360 | 19.3 | 0.0 | 0.00 | 0.00 | 0.00 | 76 | 1015.0 |
| 20260507115833 | 8 | 330 | 22.5 | 0.0 | 0.00 | 0.00 | 0.00 | 76 | 1014.0 |
| 20260507114656 | 8 | 330 | 22.5 | 0.0 | 0.00 | 0.00 | 0.00 | 76 | 1014.0 |
| 20260507113327 | 10 | 10 | 22.5 | 0.0 | 0.00 | 0.00 | 0.00 | 71 | 1014.0 |
| 20260507112154 | 10 | 10 | 22.5 | 0.0 | 0.00 | 0.00 | 0.00 | 71 | 1014.0 |
| 20260507110819 | 10 | 10 | 22.5 | 0.0 | 0.00 | 0.00 | 0.00 | 71 | 1014.0 |
| 20260507105642 | 8 | 350 | 22.5 | 0.0 | 0.00 | 0.00 | 0.00 | 76 | 1014.0 |
| 20260507104504 | 8 | 350 | 22.5 | 0.0 | 0.00 | 0.00 | 0.00 | 76 | 1014.0 |
| 20260507103133 | 8 | 360 | 25.7 | 0.0 | 0.00 | 0.00 | 0.00 | 81 | 1013.0 |
| 20260507101957 | 8 | 360 | 25.7 | 0.0 | 0.00 | 0.00 | 0.00 | 81 | 1013.0 |
| 20260507100817 | 8 | 360 | 25.7 | 0.0 | 0.00 | 0.00 | 0.00 | 81 | 1013.0 |
| 20260507095646 | 8 | 360 | 25.7 | 0.0 | 0.00 | 0.00 | 0.00 | 81 | 1013.0 |
| 20260507094509 | 8 | 360 | 25.7 | 0.0 | 0.00 | 0.00 | 0.00 | 81 | 1013.0 |
| 20260507093335 | 7 | 350 | 19.3 | 0.0 | 0.00 | 0.00 | 0.00 | 81 | 1013.0 |
| 20260507092155 | 7 | 350 | 19.3 | 0.0 | 0.00 | 0.00 | 0.00 | 81 | 1013.0 |
| 20260507090206 | 7 | 350 | 19.3 | 0.0 | 0.00 | 0.00 | 0.00 | 81 | 1013.0 |
| 20260507084820 | 7 | 350 | 19.3 | 0.0 | 0.00 | 0.00 | 0.00 | 81 | 1013.0 |
| 20260507083023 | 7 | 10 | 16.1 | 0.0 | 0.00 | 0.00 | 0.00 | 87 | 1012.0 |
| 20260507081655 | 7 | 10 | 16.1 | 0.0 | 0.00 | 0.00 | 0.00 | 87 | 1012.0 |
| 20260507080517 | 7 | 10 | 16.1 | 0.0 | 0.00 | 0.00 | 0.00 | 87 | 1012.0 |
| 20260507075339 | 7 | 10 | 16.1 | 0.0 | 0.00 | 0.00 | 0.00 | 87 | 1012.0 |
| 20260507073851 | 7 | 10 | 16.1 | 0.0 | 0.00 | 0.00 | 0.00 | 87 | 1012.0 |
| 20260507072714 | 7 | 10 | 16.1 | 0.0 | 0.00 | 0.00 | 0.00 | 87 | 1012.0 |
| 20260507071358 | 7 | 10 | 16.1 | 0.0 | 0.00 | 0.00 | 0.00 | 87 | 1012.0 |
| 20260507070216 | 7 | 10 | 16.1 | 0.0 | 0.00 | 0.00 | 0.00 | 87 | 1012.0 |
| 20260507064710 | 7 | 10 | 16.1 | 0.0 | 0.00 | 0.00 | 0.00 | 87 | 1012.0 |
| 20260507063517 | 7 | 10 | 16.1 | 0.0 | 0.00 | 0.00 | 0.00 | 87 | 1012.0 |
| 20260507062337 | 7 | 10 | 16.1 | 0.0 | 0.00 | 0.00 | 0.00 | 87 | 1012.0 |
| 20260507061026 | 7 | 10 | 16.1 | 0.0 | 0.00 | 0.00 | 0.00 | 87 | 1012.0 |
| 20260507055856 | 7 | 10 | 12.9 | 0.0 | 0.00 | 0.00 | 0.00 | 87 | 1011.0 |
| 20260507054715 | 7 | 10 | 12.9 | 0.0 | 0.00 | 0.00 | 0.00 | 87 | 1011.0 |